Location: DARK SKY Beskydy - Park tmavé oblohy, www.darkskybeskydy.cz
(49.4926°N, 18.5016°E)
Time: 11:57:15
(UTC+02:00)

Vanguard 1 - Pass Details

Date: 24 February 2024
Orbit: 653 x 3825 km, 34.2° (Epoch: 12 April)

Event Time Altitude Azimuth Distance (km) Brightness Sun altitude
Rises 17:50:46 0° 197° (SSW) 5,116 14.1 -5.8°
Reaches altitude 10° 17:54:35 10° 184° (S) 4,569 13.6 -6.4°
Maximum altitude 18:04:39 25° 136° (SE) 4,476 13.1 -8.1°
Enters shadow 18:18:08 11° 93° (E) 6,469 13.5 -10.2°
Drops below altitude 10° 18:18:46 10° 92° (E) 6,582 - -10.3°
Sets 18:25:53 0° 82° (E) 7,875 - -11.5°
